User: anonymous   Login
Location: Enborne
(51.3833°N, 1.3667°W)
Time: 06:17:45
(UTC+00:00)
Language:

Lacrosse 4 Rocket - Orbit

View from above orbital plane
View from above orbital plane
View from above satellite
View from above satellite

Ground track
Ground track

The orbit data is extracted from the following two-line orbital elements,

1 26474U 00047B   20336.39967420 +.00000558 +00000-0 +59008-4 0  9992
2 26474 067.9938 336.1429 0055078 008.7247 351.4839 14.96031413104211
Epoch (UTC): 01 December 2020 09:35:31
Eccentricity: 0.0055078
inclination: 67.9938°
perigee height: 541 km
apogee height: 617 km
right ascension of ascending node: 336.1429°
argument of perigee: 8.7247°
revolutions per day: 14.96031413
mean anomaly at epoch: 351.4839°
orbit number at epoch: 10421

The dashed part of the orbit path shows where the satellite is in the earth's shadow,  

DLR